Regional Weather Roundup
Issued by NWS

Home | Current Version | Previous Version | Text Only | Print | Product List | Glossary On
Versions: 1 2 3 4 5 6 7 8 9 10 11 12 13 14 15 16 17 18 19 20 21 22 23 24 25 26 27 28 29 30 31 32 33 34 35 36 37 38 39 40 41 42 43 44 45 46 47 48 49 50
000
ASUS45 KPSR 240410
RWRAZ

ARIZONA REGIONAL HOURLY WEATHER ROUNDUP
NATIONAL WEATHER SERVICE PHOENIX AZ
900 PM MST WED JUL 23 2014

NOTE: FAIR INDICATES FEW OR NO CLOUDS BELOW 12,000 FEET WITH NO
SIGNIFICANT WEATHER AND/OR OBSTRUCTIONS TO VISIBILITY.

AZZ001>003-036-240500-
NORTHWEST ARIZONA

CITY           SKY/WX    TMP DP  RH WIND       PRES   REMARKS
BULLHEAD CITY  CLEAR    106  36   9 CALM      29.75R
KINGMAN        CLEAR     87  37  17 S8        30.01R
$$

AZZ004>008-015-016-018-240500-
NORTH CENTRAL ARIZONA

CITY           SKY/WX    TMP DP  RH WIND       PRES   REMARKS
GRAND CANYON   CLOUDY    74  43  32 CALM      30.31R
WILLIAMS       CLOUDY    77  45  31 S9        30.38R
PRESCOTT       CLOUDY    85  49  28 S6        30.18R
FLAGSTAFF      CLOUDY    74  48  39 S6        30.38R
PAYSON         CLOUDY    77  59  53 SW6       30.28R
PAGE           MOCLDY    95  42  16 SE20G28   30.06R
$$

AZZ009>014-017-240500-
NORTHEAST ARIZONA

CITY           SKY/WX    TMP DP  RH WIND       PRES   REMARKS
WINSLOW        LGT RAIN  75  59  57 S14       30.22S
SAINT JOHNS    CLOUDY    71  63  75 CALM      30.31R
WINDOW ROCK    MOCLDY    71  50  47 CALM      30.38S
SHOW LOW       CLOUDY    68  50  52 S5        30.38R
$$

AZZ023-240500-
GREATER PHOENIX AREA

CITY           SKY/WX    TMP DP  RH WIND       PRES   REMARKS
PHOENIX        MOCLDY   107  56  18 E14       29.81R HX 106
BUCKEYE          N/A    102  50  17 E7        29.79R
LUKE AFB       NOT AVBL
DEER VALLEY    CLOUDY    98  57  25 NE10G23   29.87R
SCOTTSDALE     CLOUDY   102  57  22 NE14      29.87R HX 101
MESA-GATEWAY   CLOUDY   100  54  20 SE15      29.87R
CHANDLER       MOCLDY   100  57  23 E15         N/A
$$

AZZ027-028-240500-
SOUTHWEST MARICOPA COUNTY AND PINAL COUNTY

CITY           SKY/WX    TMP DP  RH WIND       PRES   REMARKS
CASA GRANDE    MOCLDY   100  57  23 E15       29.87R
GILA BEND      MOCLDY   108  45  12 NE2       29.79R HX 103
$$

AZZ503-504-507>509-240500-
SOUTHEAST ARIZONA

CITY           SKY/WX    TMP DP  RH WIND       PRES   REMARKS
TUCSON         CLOUDY    87  63  44 NW3       30.02R
DAVIS-MONTHAN  CLOUDY    88  62  42 W9        30.01R
SIERRA VISTA   PTCLDY    82  55  39 CALM      30.18R
DOUGLAS        CLEAR     82  51  34 E8        30.13R
SAFFORD        MOCLDY    87  59  38 E10       30.05R
$$

AZZ020-021-025-026-031-240500-
SOUTHWEST ARIZONA

CITY           SKY/WX    TMP DP  RH WIND       PRES   REMARKS
YUMA           MOCLDY   105  47  14 W7        29.71S HX 101
$$

CAZ031-033-041-043-047-048-061-240500-
SOUTHERN CALIFORNIA

CITY           SKY/WX    TMP DP  RH WIND       PRES   REMARKS
DOWNTOWN L.A.  CLEAR     72  60  66 CALM      29.87S
L.A. AIRPORT   CLEAR     71  60  68 W12       29.88R
SAN DIEGO      PTCLDY    73  63  70 NW5       29.91S
BURBANK        CLEAR     81  57  43 SE5       29.89R
ONTARIO        PTCLDY    83  51  33 SW6       29.91R
RIVERSIDE      CLEAR     82  45  27 W5        29.90S
PALM SPRINGS   CLEAR    104  41  11 NW16      29.76R
EL CENTRO NAS  PTCLDY   101  48  16 W12       29.69R
IMPERIAL       CLEAR     99  49  18 W7        29.69R
BLYTHE         CLEAR    108  39   9 SW9       29.72R HX 102
NEEDLES        CLEAR    105  25   6 W12       29.76S
$$

NVZ020-UTZ003-240500-
SOUTHERN NEVADA-UTAH

CITY           SKY/WX    TMP DP  RH WIND       PRES   REMARKS
LAS VEGAS      PTCLDY   102  23   6 SW14      29.82R
SALT LAKE CITY MOCLDY    91  43  18 S20       29.94R
$$

NMZ009-TXZ055-240500-
NEW MEXICO-WEST TEXAS

CITY           SKY/WX    TMP DP  RH WIND       PRES   REMARKS
ALBUQUERQUE    PTCLDY    78  51  38 SE8       30.29R
EL PASO        PTCLDY    84  49  29 E7        30.16R
$$


........................KEY........................
SKY/WX - SKY CONDITION/WEATHER
TMP    - TEMPERATURE IN FAHRENHEIT
DP     - DEW POINT IN FAHRENHEIT
RH     - RELATIVE HUMIDITY IN PERCENT
WIND   - DIRECTION AND SPEED IN MILES PER HOUR (MPH)
VRB    - VARIABLE WIND DIRECTION
PRES   - MEAN SEA LEVEL PRESSURE IN INCHES OF MERCURY
         F - FALLING PRESSURE   R - RISING PRESSURE
         S - STEADY PRESSURE
VSB    - VISIBILITY IN MILES
HX     - HEAT INDEX IN FAHRENHEIT
WCI    - WIND CHILL INDEX IN FAHRENHEIT
TC     - TEMPERATURE IN CELSIUS WHICH IS ALSO KNOWN AS
         TEMPERATURE IN CENTIGRADE
AFB    - AIR FORCE BASE
         LUKE AFB IS LUKE AIR FORCE BASE
         DAVIS-MONTHAN IS DAVIS-MONTHAN AIR FORCE BASE
NAS    - NAVAL AIR STATION
         EL CENTRO NAS IS EL CENTRO NAVAL AIR STATION
N/A    - NOT AVAILABLE


USA.gov is the U.S. government's official web portal to all federal, state and local government web resources and services.